Location: �ayi�i
(36.4667°N, 30.2333°E)
Time: 22:59:17
(UTC+00:00)

Daily predictions for brighter satellites

Satellite Brightness Start Highest point End
(mag) Time Altitude Azimuth Time Altitude Azimuth Time Altitude Azimuth
Meteor 1-25 Rocket 4.2 15:10:41 10° N 15:16:16 72° E 15:21:53 10° SSE
CZ-4B DEB 4.5 15:12:53 10° SE 15:18:08 46° ENE 15:23:22 10° N
ARGOS 4.3 15:18:15 10° ESE 15:22:13 21° ENE 15:26:11 10° NNE
Cosmos 1500 Rocket 3.9 15:18:14 10° NNW 15:22:38 70° W 15:26:58 10° S
Cosmos 1898 Rocket 3.5 15:19:43 10° NNW 15:24:59 86° ENE 15:30:10 10° SSE
Cosmos 1939 Rocket 2.9 15:21:50 10° SSE 15:25:56 85° E 15:30:03 10° N
DEBRIS 4.0 15:24:53 10° SSE 15:26:20 15° ESE 15:28:00 11° E
Cosmos 1833 Rocket 3.9 15:21:36 10° SW 15:26:54 42° WNW 15:32:13 10° N
Sich 1 3.0 15:25:50 10° N 15:30:05 59° E 15:34:20 10° SSE
CZ-2C R/B 2.6 15:26:19 10° SW 15:30:08 32° SSE 15:33:42 11° E
COSMOS 2406 4.0 15:24:47 10° SW 15:30:23 53° WNW 15:35:59 10° NNE
Cosmos 1602 3.7 15:27:48 10° N 15:31:41 86° ENE 15:35:33 10° S
Cosmos 2084 3.9 15:28:28 10° NW 15:32:50 69° WSW 15:37:21 10° SSE
USA 276 2.3 15:30:21 10° NW 15:33:27 71° SW 15:36:33 10° SE
Cosmos 1805 Rocket 3.5 15:30:13 10° N 15:34:34 89° ENE 15:38:54 10° S
USA 267 4.3 15:30:37 10° NNE 15:36:29 37° NNW 15:42:21 10° W
CZ-2C R/B 4.2 15:32:31 10° S 15:37:15 44° W 15:41:50 10° NNW
deb Chang Zheng 4 4.4 15:34:28 10° SE 15:38:06 27° ENE 15:41:44 10° NNE
Cosmos 1092 Rocket 4.2 15:35:07 10° N 15:41:29 80° W 15:47:46 10° S
Cosmos 1428 Rocket 4.5 15:36:10 10° N 15:42:21 90° E 15:48:32 10° S
Cosmos 2208 Rocket 4.2 15:37:41 10° S 15:42:53 54° ESE 15:48:11 10° NNE
Cosmos 1782 3.5 15:40:37 10° SSW 15:44:32 57° W 15:48:28 10° N
Meteor 2-6 Rocket 4.4 15:40:54 10° SSE 15:46:29 50° E 15:51:55 10° NNE
CZ-4C R/B 3.4 15:41:06 10° NNW 15:48:10 43° NE 15:56:10 10° ESE
CZ-2C R/B 2.6 15:43:14 10° NNE 15:48:19 55° E 15:53:23 10° S
H-2A R/B 2.0 15:43:43 10° SSE 15:48:51 62° ENE 15:53:51 10° N
CZ-4B R/B 3.4 15:43:54 10° SE 15:49:02 45° ENE 15:54:07 10° N
CZ-4C R/B 4.2 15:49:16 21° E 15:49:27 21° E 15:52:04 10° SSE
PAYLOAD B 4.2 15:44:56 10° SSE 15:50:29 71° ENE 15:56:04 10° N
Meteor 2-16 Rocket 4.5 15:44:55 10° N 15:50:55 56° E 15:56:55 10° SSE
CZ-2D R/B 3.1 15:47:13 10° SSE 15:51:01 75° ENE 15:54:51 10° N
Cosmos 841 Rocket 4.5 15:47:46 10° SW 15:52:43 46° WNW 15:57:41 10° N
GPS 2-04 Rocket1 3.0 15:51:10 10° W 15:55:15 65° S 15:58:08 18° ESE
Cosmos 1500 3.4 15:52:58 10° NNW 15:56:41 71° W 16:00:22 10° S
Cosmos 2142 Rocket 4.4 15:50:40 10° S 15:56:48 87° E 16:03:01 10° N
USA 229 DEB 4.4 15:49:28 10° NW 15:56:56 69° WSW 16:04:45 10° SSE
USA 229 4.3 15:49:33 10° NW 15:57:02 70° WSW 16:04:51 10° SSE
SMAP 4.3 15:56:12 10° S 16:00:38 45° W 16:05:06 10° NNW
COSMOS 2455 4.0 15:56:39 10° SW 16:02:16 40° WNW 16:07:55 10° NNE
Cosmos 2279 Rocket 4.0 15:56:08 10° S 16:02:22 89° W 16:08:36 10° N
Cosmos 1937 Rocket 4.2 15:58:09 10° NNW 16:03:23 58° WSW 16:08:33 10° S
Cosmos 921 Rocket 2.9 16:01:58 10° S 16:06:03 58° ESE 16:08:31 23° NNE
USA 234 3.2 16:00:21 10° ESE 16:06:50 67° NE 16:13:18 10° NW
COSMO-SKYMED 1 2.5 16:05:24 10° NNE 16:09:46 87° WNW 16:14:06 10° SSW
Lacrosse 5 rocket 3.3 16:07:58 10° N 16:09:12 14° NNE 16:09:12 14° NNE
Cosmos 372 Rocket 4.1 16:06:18 10° NNW 16:11:33 79° WSW 16:16:47 10° SSE
Meteor 1-10 Rocket 4.2 16:06:10 10° S 16:11:52 61° E 16:17:29 10° NNE
Cosmos 2266 Rocket 4.3 16:06:28 10° N 16:12:32 43° ENE 16:18:35 10° SSE
Cosmos 1633 Rocket 3.0 16:12:39 10° N 16:17:02 89° E 16:21:26 10° S
Cosmos 44 Rocket 4.1 16:13:23 10° N 16:17:17 31° NE 16:17:17 31° NE
Meteor 1-11 Rocket 4.2 16:13:05 10° N 16:18:18 37° ENE 16:23:36 10° SE
SL-24 R/B - RUBIN 2 3.5 16:14:46 10° NNW 16:19:11 83° WSW 16:23:28 10° SSE
ISS -2.7 16:17:40 10° NW 16:20:02 32° N 16:20:02 32° N
Cosmos 1151 Rocket 4.2 16:17:13 10° SSW 16:21:19 43° W 16:25:30 10° N
Cosmos 1666 3.2 16:22:19 10° NNW 16:25:58 56° W 16:29:35 10° S
CZ-4 R/B 4.3 16:23:23 10° SSE 16:27:30 83° ENE 16:31:39 10° N
Meteor 2-15 4.4 16:21:31 10° S 16:27:37 90° ESE 16:33:45 10° N
Feng Yun 1-1 Rocket 4.4 16:22:30 10° SSE 16:28:15 55° ENE 16:33:58 10° N
Okean O Rocket 1.6 16:27:51 10° SSE 16:32:17 83° WSW 16:36:46 10° NNW
Cosmos 2322 Rocket 3.8 16:29:56 10° N 16:32:02 19° NNE 16:32:02 19° NNE
X-37B 2.2 16:37:05 10° WSW 16:38:46 31° WSW 16:38:46 31° WSW
Cosmos 1980 Rocket 3.1 16:34:40 10° NNW 16:40:06 49° WSW 16:45:28 10° S
Landsat 5 4.2 16:40:23 21° N 16:42:51 48° WNW 16:46:38 10° SSW
APEX 3.6 16:39:03 10° SW 16:43:11 56° WNW 16:43:29 54° NW
Cosmos 1241 Rocket 4.5 16:38:54 10° SSW 16:45:12 62° ESE 16:46:25 52° ENE
Cosmos 1470 Rocket 3.7 16:42:38 10° N 16:47:05 74° W 16:51:32 10° S
Cosmos 2082 Rocket 4.5 16:47:10 10° W 16:51:12 20° NW 16:55:15 10° N
SL-16 R/B 2.9 16:47:45 10° NNW 16:51:24 37° NNE 16:51:24 37° NNE
Cosmos 1655 Rocket 4.0 16:47:16 10° N 16:53:41 83° W 17:00:01 10° S
Cosmos 2298 Rocket 3.9 16:52:45 10° NNW 16:58:06 84° ENE 16:58:06 84° ENE
ARGOS 4.2 16:56:57 10° S 17:02:07 45° W 17:07:17 10° NNW
DMSP B5D2-2 4.1 17:01:44 52° N 17:02:59 74° WNW 17:08:11 10° SSW
CZ-2C R/B 2.8 17:05:16 10° WSW 17:07:51 35° WSW 17:07:51 35° WSW
Cosmos 1818 3.7 17:04:15 10° NNW 17:08:58 67° NW 17:08:58 67° NW
Centaur D-1A AC-32 4.3 17:09:38 10° SW 17:11:58 16° SSW 17:11:58 16° SSW
H-2A R/B 4.4 17:16:24 17° SSW 17:16:24 17° SSW 17:17:28 10° SSW
Meteor 1-27 Rocket 4.2 17:12:25 10° SSW 17:17:49 56° W 17:19:11 44° NNW
Cosmos 1867 4.3 17:23:18 10° SW 17:27:59 49° W 17:27:59 49° W
CZ-4C R/B 3.9 17:29:33 10° NW 17:36:56 47° WSW 17:45:06 10° S
